Tracking 17884 objects as of 6-December-2016
HD Live streaming from Space Station
objects crossing your sky now

FALCON 9 R/B

Track FALCON 9 R/B now!
10-day predictions


NORAD ID: 37253
Int'l Code: 2010-066K
Perigee: 295.2 km
Apogee: 10,311.9 km
Inclination: 34.5 °
Period: 209.2 minutes
Semi major axis: 11674 km
RCS: 20.0149 m2 (large)
Launch date: December 8, 2010
Source: United States (US)
Launch site: AIR FORCE EASTERN TEST RANGE (AFETR)

Note: This is a ROCKET BODY
Your satellite tracking list
Your tracking list is empty





NASA's NSSDC Master Catalog

Two Line Element Set (TLE):
1 37253U 10066K   16340.04457499  .00002883  00000-0  26594-3 0  9999
2 37253  34.5166 280.3780 4289951 142.0308 257.8359  6.88241027147202
Source of the keplerian elements: AFSPC